Wind_Speed
6 4 6 4 2 3 3 6 4 7 8 3 3 5 9 7 5 4 9 20 23 25 24 24 21 19 17 17 16 16 15 14 14 13 12 10 7 6 8 11 14 17 14 14 16 14 14 13 12
7 6 3 2 3 1 5 4 4 5 11 2 8 7 4 3 6 10 24 20 21 25 25 23 22 18 20 17 18 17 16 16 15 12 8 5 6 8 10 13 16 16 15 14 14 12 15 12 13
8 7 2 3 4 6 5 5 2 7 11 5 3 6 4 5 6 20 15 24 24 27 27 24 22 20 19 18 17 17 17 14 12 10 7 8 9 11 13 15 18 14 13 12 12 12 13 12 13
7 5 2 2 8 6 6 4 7 15 6 5 2 4 2 5 9 16 23 24 26 27 26 25 22 21 21 18 17 17 16 13 11 11 11 11 12 14 16 17 17 13 12 11 12 12 11 12 12
9 3 2 3 7 4 2 4 16 13 3 6 2 4 2 6 4 16 24 22 23 28 26 24 22 20 19 16 15 15 14 14 13 13 15 15 15 16 16 14 15 14 12 12 12 11 10 10 10
5 2 3 8 6 1 2 6 5 4 3 2 3 3 4 4 5 16 20 21 22 27 26 23 20 18 16 16 16 16 16 15 16 20 18 14 13 14 13 11 11 11 12 13 13 11 9 8 8
4 3 4 3 2 3 2 1 2 5 4 3 3 2 3 11 11 20 18 19 24 26 26 23 19 17 17 18 17 16 16 17 18 17 15 13 11 12 11 11 11 13 13 14 13 11 8 6 6
4 3 2 3 2 5 3 2 2 5 3 3 3 4 5 19 22 25 19 20 24 26 24 21 19 18 20 19 18 17 18 18 20 15 10 10 10 11 11 11 12 13 13 13 13 11 8 7 8
3 1 3 2 3 3 3 4 3 7 5 5 6 3 7 21 25 25 24 24 24 26 23 21 20 21 20 20 19 19 19 19 18 13 8 8 9 11 11 12 12 13 13 14 13 12 11 11 13
2 3 5 4 4 4 11 3 10 4 5 8 10 9 11 22 27 30 30 28 27 26 24 22 22 23 23 21 21 21 21 20 17 11 10 11 11 10 12 13 14 15 15 15 14 15 15 15 16
1 3 2 4 14 19 14 14 10 4 4 15 16 21 21 30 32 32 31 29 24 23 23 25 25 25 26 24 23 22 21 18 15 13 14 13 11 12 13 14 16 16 15 16 16 17 17 16 15
4 6 3 7 10 9 7 15 6 13 14 23 22 17 26 33 35 33 34 30 26 25 23 26 27 28 28 25 24 21 18 16 16 16 14 10 10 13 15 16 17 17 17 17 16 15 16 15 14
4 2 11 14 16 12 14 14 9 14 16 20 17 19 28 32 34 35 29 29 25 26 24 28 29 31 27 26 24 20 18 17 16 15 14 10 9 13 16 17 17 18 16 14 14 13 13 13 12
4 10 15 12 17 13 10 9 7 3 9 19 15 20 29 39 36 34 33 30 22 29 25 29 31 32 29 26 24 21 19 16 16 14 11 9 8 11 15 17 18 18 16 14 12 11 11 10 10
9 4 8 2 5 6 4 5 5 13 16 20 21 22 25 40 38 38 38 31 35 38 28 31 33 33 30 27 24 22 18 15 14 13 12 10 9 12 14 16 17 18 17 14 12 10 9 7 6
4 3 4 7 4 4 3 6 7 9 9 10 16 20 26 33 44 44 39 28 32 40 35 30 34 35 32 29 25 24 19 15 13 14 12 11 11 12 14 15 16 16 15 13 11 9 8 6 5
4 4 4 6 7 5 4 6 6 21 13 13 15 14 27 35 37 42 39 37 36 41 40 34 36 35 34 30 27 26 22 19 17 16 14 12 13 13 13 15 16 15 15 13 10 9 7 6 4
6 5 5 7 5 5 9 9 12 20 18 15 14 15 16 30 41 44 46 43 37 39 44 38 38 36 33 33 35 30 27 23 20 18 16 14 15 15 15 16 16 15 15 13 11 9 8 6 5
6 4 6 9 9 5 8 8 9 18 19 16 19 17 16 21 32 40 48 47 41 40 45 43 39 35 37 41 42 38 33 30 25 22 19 15 16 15 15 16 17 17 15 13 11 10 9 8 6
6 7 12 10 6 4 9 11 8 7 9 20 17 18 18 19 21 32 43 45 47 47 49 44 46 46 42 49 44 41 37 35 30 26 20 16 17 16 16 17 17 17 16 15 13 11 9 8 7
6 7 6 10 10 4 7 7 6 4 9 16 13 13 11 16 21 25 38 44 44 49 51 53 53 55 51 50 48 44 40 37 31 26 23 19 18 17 18 18 17 16 16 15 13 12 10 9 9
6 4 9 13 10 6 8 5 5 7 7 5 14 19 18 15 16 22 33 41 49 48 49 48 51 56 50 50 49 47 43 39 32 27 22 19 21 17 18 19 19 17 16 15 13 12 12 11 10
9 11 8 7 7 4 6 2 7 7 7 14 13 25 22 14 13 20 31 39 44 44 48 48 50 47 48 49 49 45 42 31 26 21 19 19 20 18 19 20 19 18 16 14 13 13 12 12 12
10 4 4 4 3 2 4 6 5 4 8 14 14 21 14 6 11 18 25 32 41 42 30 36 50 41 45 46 47 39 33 25 15 13 14 24 24 19 20 21 19 18 16 15 14 14 14 14 14
9 6 4 6 5 6 6 2 6 8 8 9 10 14 12 2 12 15 24 33 38 36 40 38 41 44 47 41 30 23 28 23 9 13 22 26 25 25 21 20 19 18 17 16 14 14 15 16 16
4 3 2 3 5 5 7 7 5 5 7 13 17 14 19 16 9 13 18 27 32 38 39 36 40 37 41 26 13 7 3 15 24 23 21 22 20 19 22 19 18 17 15 15 15 15 17 18 18
5 5 2 3 4 3 3 2 5 9 10 14 18 26 27 25 14 6 10 15 16 23 23 23 20 23 25 17 15 11 18 25 18 8 12 17 17 20 21 19 18 17 16 15 16 16 15 15 16
2 6 2 3 5 5 6 3 5 13 13 12 12 17 21 21 22 21 17 9 7 15 16 10 9 8 11 8 25 10 13 10 11 11 14 16 18 19 19 17 17 16 16 15 15 15 15 16 17
5 4 3 4 1 2 5 4 4 6 9 7 10 14 18 21 20 18 16 17 17 17 18 18 12 9 11 11 10 11 12 13 12 13 13 14 17 17 17 17 17 15 15 16 16 16 16 16 16
3 2 3 3 3 2 1 5 4 5 6 9 9 12 17 20 22 17 16 19 17 18 18 17 15 15 13 13 13 12 12 11 12 13 13 14 16 17 16 14 13 14 14 14 14 15 15 15 16
Wind_Direction
215 223 212 206 38 67 257 260 258 304 312 302 265 217 168 123 162 202 155 162 165 164 162 160 169 167 159 160 159 155 151 151 145 142 142 141 137 119 117 115 117 115 113 106 102 104 96 88 84
209 197 230 157 113 195 266 247 260 260 290 269 59 16 78 110 134 145 147 158 166 163 160 165 166 170 162 165 162 154 153 151 154 147 158 152 137 126 121 119 117 115 117 114 109 107 98 95 81
195 196 198 159 177 198 231 238 245 312 30 358 83 48 359 113 153 157 160 157 166 167 165 168 171 170 163 171 166 167 170 176 173 167 162 143 135 126 121 119 117 118 116 115 113 106 99 95 83
186 185 219 185 228 247 200 271 314 325 322 28 62 52 13 308 181 170 164 159 169 168 168 172 178 173 170 176 173 172 175 179 166 159 146 137 131 124 118 122 121 124 122 119 118 110 109 99 82
179 166 217 237 246 255 227 260 293 285 283 6 344 137 10 126 150 174 167 163 172 171 170 179 183 179 176 181 178 172 168 163 157 142 129 133 128 126 127 124 125 126 126 125 125 121 118 102 86
161 164 209 236 256 283 299 277 269 257 52 294 51 116 137 197 199 168 167 167 176 169 172 178 186 177 177 177 170 165 160 156 145 132 135 144 136 137 135 133 128 124 123 127 129 131 124 103 85
139 113 233 224 271 315 284 347 339 311 311 352 155 131 146 179 180 163 168 170 174 170 173 184 187 179 174 169 166 161 152 145 144 150 148 145 150 145 139 134 128 126 125 127 130 134 128 108 84
190 114 254 246 196 266 29 21 58 341 321 231 206 218 159 178 170 168 164 171 178 181 184 187 187 179 172 167 161 152 149 156 160 158 151 152 152 148 145 140 135 132 129 131 133 137 127 105 89
191 150 223 244 175 275 62 18 356 322 272 264 246 150 160 180 175 174 169 177 183 186 188 192 187 179 173 164 159 164 163 164 174 175 166 158 155 152 148 145 141 137 134 132 132 128 113 106 99
177 204 213 210 286 276 299 295 319 278 259 248 246 192 184 190 185 180 179 184 188 189 190 194 189 180 171 163 171 174 172 178 185 184 165 153 148 152 152 147 145 141 137 132 126 119 109 107 100
274 223 236 276 293 296 285 293 290 216 251 245 237 214 186 192 188 187 186 196 198 198 199 194 190 182 172 175 175 173 176 181 181 172 154 146 148 154 160 153 143 139 135 131 124 116 113 108 100
342 266 290 296 304 302 291 302 246 232 256 278 282 238 188 194 189 189 190 192 199 204 210 197 190 184 178 181 180 178 186 181 176 164 154 151 147 152 153 150 145 142 137 132 128 122 116 111 103
188 254 310 302 295 280 278 259 249 262 264 273 266 218 201 191 192 193 201 194 205 211 208 200 193 188 184 188 183 185 188 178 174 170 159 147 147 158 158 153 150 145 139 138 133 127 121 115 107
258 290 290 290 282 281 246 271 250 308 310 261 233 228 207 194 193 196 195 191 221 215 214 203 198 195 187 191 192 187 182 178 176 173 163 150 156 171 167 162 157 152 149 146 141 133 126 118 108
282 315 333 316 316 290 339 338 243 275 264 259 227 226 217 204 195 207 192 206 206 212 208 204 200 196 192 193 193 191 182 183 182 177 170 167 172 180 178 172 165 161 157 159 156 148 138 125 107
339 64 25 292 311 283 113 246 277 321 321 301 274 240 219 211 213 215 206 199 206 206 205 201 199 198 194 195 192 191 188 184 187 189 182 182 182 186 185 182 175 170 167 166 161 156 151 145 131
351 279 286 298 283 265 187 251 262 303 299 288 292 273 238 221 215 210 207 203 217 209 203 199 200 199 198 199 196 198 196 192 195 199 195 190 191 189 193 191 186 182 179 175 177 172 176 167 160
283 298 264 261 271 263 277 257 262 275 286 280 284 290 264 232 226 220 210 216 220 214 205 203 202 203 201 207 202 202 203 198 202 203 201 198 198 193 193 195 197 195 193 192 189 195 193 193 194
276 269 270 273 263 267 262 264 252 268 283 285 287 286 280 247 245 229 220 222 220 216 208 206 205 208 211 212 206 204 202 198 202 204 204 204 203 203 203 204 201 201 204 209 204 207 209 209 216
297 279 285 286 270 276 274 279 254 250 255 270 284 289 286 270 244 229 224 215 221 216 206 207 212 209 216 213 209 207 199 198 202 202 210 205 202 210 211 212 206 208 212 215 217 224 222 229 238
287 269 279 274 311 247 281 279 251 275 267 274 288 291 294 273 260 232 217 220 211 215 210 209 210 214 214 213 211 209 200 202 204 201 202 208 209 208 214 215 215 219 219 224 225 229 232 241 249
309 248 297 303 320 308 5 290 318 267 287 8 336 324 314 312 244 230 216 212 212 214 211 213 213 219 218 216 214 210 209 206 211 204 204 207 214 214 217 221 223 221 223 222 225 234 242 245 250
259 319 311 311 306 19 358 307 277 345 344 335 322 319 317 313 225 218 213 210 204 200 207 213 216 220 220 213 213 209 209 215 219 207 214 189 213 218 220 223 222 222 226 230 236 242 246 252 261
288 338 18 19 39 42 347 353 303 345 312 316 312 329 327 304 202 211 218 207 203 202 202 224 223 232 220 211 209 208 219 216 191 220 219 219 209 211 220 222 223 228 229 235 241 247 255 263 271
41 11 348 354 8 1 15 310 278 296 309 309 313 344 5 67 183 188 197 205 193 198 207 219 223 227 229 223 219 218 229 202 274 212 236 221 216 202 218 220 223 227 230 239 243 254 262 267 270
28 90 64 285 355 310 349 339 328 304 321 14 21 32 49 60 140 178 193 202 195 204 205 219 225 226 229 223 217 192 208 252 257 232 227 223 217 208 220 221 223 232 238 244 250 257 263 267 267
320 46 174 159 198 309 261 220 284 348 28 5 15 38 43 59 78 116 193 203 207 200 208 220 220 214 208 206 226 252 232 238 233 214 197 212 208 211 219 220 231 237 238 245 254 255 261 264 271
54 160 59 10 357 336 311 341 316 341 0 340 20 26 53 61 64 66 73 90 132 181 198 201 238 237 243 191 193 216 199 173 159 178 187 202 211 215 221 223 227 235 242 248 256 262 266 271 276
344 3 56 114 11 337 310 314 347 336 344 2 17 49 63 67 70 75 85 89 81 92 104 107 101 112 139 132 138 139 150 160 174 186 197 205 209 217 219 220 226 233 245 255 261 269 276 279 280
228 314 83 96 265 258 202 280 8 8 1 46 63 62 80 74 71 75 98 99 109 114 110 118 128 136 133 129 134 143 150 163 180 189 194 203 212 206 210 222 236 248 257 266 274 277 277 278 282
Height
1510 1510 1511 1513 1524 1522 1526 1516 1502 1498 1492 1484 1483 1482 1481 1485 1491 1508 1493 1497 1500 1504 1508 1513 1517 1521 1523 1526 1528 1529 1530 1532 1533 1535 1535 1535 1534 1534 1535 1535 1536 1537 1537 1537 1537 1536 1536 1536 1535
1509 1509 1512 1511 1525 1532 1524 1504 1502 1495 1489 1485 1484 1484 1482 1487 1487 1489 1492 1497 1502 1505 1509 1513 1517 1520 1523 1526 1528 1530 1531 1532 1533 1535 1536 1535 1535 1535 1536 1536 1537 1539 1538 1538 1539 1538 1538 1538 1538
1508 1509 1511 1513 1520 1525 1521 1501 1495 1492 1490 1486 1486 1488 1488 1488 1489 1489 1492 1495 1501 1504 1508 1513 1517 1520 1523 1525 1527 1529 1531 1532 1532 1534 1535 1537 1537 1536 1537 1538 1539 1540 1540 1540 1540 1540 1540 1540 1540
1507 1511 1511 1514 1515 1507 1503 1496 1494 1488 1490 1489 1487 1489 1492 1489 1490 1492 1493 1496 1501 1505 1509 1512 1516 1519 1522 1524 1526 1528 1530 1532 1532 1534 1534 1536 1538 1538 1538 1539 1541 1541 1541 1541 1541 1542 1542 1542 1542
1506 1508 1514 1513 1507 1499 1498 1497 1496 1491 1490 1489 1490 1490 1491 1490 1491 1493 1495 1497 1501 1506 1510 1513 1515 1519 1521 1524 1526 1527 1529 1531 1533 1534 1536 1537 1538 1540 1541 1541 1542 1542 1542 1543 1543 1543 1544 1544 1544
1505 1507 1513 1513 1505 1497 1495 1495 1493 1491 1491 1491 1489 1490 1491 1491 1494 1495 1499 1501 1503 1508 1512 1514 1516 1519 1521 1524 1525 1527 1529 1531 1534 1537 1538 1539 1539 1541 1542 1543 1543 1544 1544 1544 1544 1544 1545 1546 1546
1505 1510 1512 1507 1506 1501 1495 1493 1492 1491 1490 1488 1489 1490 1492 1490 1495 1497 1502 1505 1507 1509 1513 1515 1517 1519 1521 1524 1527 1528 1530 1532 1535 1538 1538 1539 1540 1541 1542 1543 1544 1545 1546 1546 1547 1546 1547 1547 1548
1504 1506 1510 1506 1506 1504 1495 1494 1494 1494 1492 1491 1489 1489 1492 1491 1492 1499 1502 1508 1509 1510 1513 1515 1517 1520 1522 1524 1528 1529 1532 1534 1535 1539 1540 1540 1541 1541 1543 1544 1545 1546 1547 1548 1548 1548 1549 1549 1550
1502 1509 1514 1508 1503 1500 1496 1496 1495 1495 1493 1492 1490 1489 1488 1490 1495 1499 1500 1507 1510 1511 1512 1515 1517 1519 1522 1526 1528 1531 1532 1534 1535 1537 1540 1542 1542 1543 1543 1544 1546 1547 1548 1548 1549 1550 1551 1551 1552
1502 1508 1505 1501 1500 1499 1496 1496 1496 1495 1493 1490 1490 1489 1490 1488 1493 1494 1498 1504 1509 1511 1511 1514 1517 1518 1522 1525 1528 1531 1532 1532 1536 1536 1538 1539 1542 1545 1545 1545 1546 1547 1548 1550 1550 1552 1553 1554 1554
1501 1505 1499 1498 1498 1497 1496 1493 1494 1492 1492 1486 1484 1488 1487 1487 1488 1491 1493 1502 1506 1511 1513 1514 1517 1518 1522 1524 1527 1529 1532 1533 1535 1537 1537 1539 1541 1543 1546 1546 1547 1549 1550 1551 1552 1553 1554 1555 1556
1504 1499 1498 1497 1496 1495 1493 1490 1489 1488 1486 1482 1482 1484 1484 1485 1484 1487 1491 1497 1504 1509 1512 1514 1517 1520 1522 1524 1526 1528 1531 1532 1537 1537 1536 1539 1540 1543 1546 1548 1548 1549 1551 1553 1554 1555 1556 1557 1558
1501 1498 1497 1495 1493 1491 1489 1486 1485 1483 1483 1480 1479 1479 1481 1483 1484 1485 1487 1496 1503 1508 1510 1513 1516 1518 1521 1526 1526 1525 1529 1532 1536 1538 1536 1539 1541 1544 1546 1548 1549 1551 1553 1555 1556 1557 1558 1558 1559
1497 1496 1494 1491 1489 1487 1485 1483 1482 1478 1477 1477 1476 1475 1476 1478 1479 1483 1488 1492 1498 1506 1508 1511 1514 1517 1518 1525 1525 1524 1527 1530 1534 1537 1537 1538 1541 1544 1546 1548 1550 1550 1553 1555 1557 1558 1559 1560 1561
1497 1498 1493 1490 1487 1485 1483 1483 1479 1476 1474 1472 1473 1473 1474 1476 1479 1478 1482 1485 1487 1498 1505 1506 1512 1515 1519 1522 1524 1526 1526 1530 1533 1535 1537 1538 1541 1543 1545 1548 1550 1550 1552 1555 1557 1559 1559 1560 1561
1498 1499 1505 1490 1485 1482 1483 1491 1477 1474 1473 1472 1472 1474 1473 1473 1472 1476 1481 1483 1486 1494 1498 1505 1510 1514 1517 1520 1523 1525 1526 1529 1531 1534 1535 1538 1540 1543 1545 1548 1549 1551 1552 1554 1557 1558 1560 1560 1560
1503 1508 1503 1495 1483 1482 1482 1485 1475 1472 1471 1470 1469 1469 1470 1471 1472 1475 1478 1480 1484 1486 1494 1503 1508 1512 1515 1518 1520 1524 1525 1528 1530 1531 1534 1535 1539 1541 1545 1547 1549 1550 1552 1554 1556 1557 1560 1561 1561
1507 1506 1500 1497 1485 1480 1482 1482 1474 1469 1467 1466 1466 1464 1465 1466 1466 1470 1474 1477 1482 1487 1494 1500 1506 1511 1512 1514 1516 1518 1521 1525 1530 1531 1531 1532 1537 1540 1543 1545 1548 1550 1552 1553 1554 1557 1558 1559 1561
1500 1500 1499 1488 1480 1481 1478 1476 1472 1466 1462 1460 1460 1461 1461 1462 1464 1465 1468 1473 1478 1484 1490 1498 1503 1508 1509 1510 1510 1512 1517 1522 1526 1529 1529 1530 1535 1538 1541 1544 1545 1548 1551 1553 1553 1555 1556 1557 1558
1497 1497 1491 1482 1476 1477 1474 1470 1466 1463 1459 1456 1455 1455 1455 1456 1458 1459 1464 1467 1472 1477 1485 1490 1495 1500 1500 1502 1507 1509 1513 1519 1523 1526 1528 1529 1532 1535 1539 1543 1544 1547 1549 1550 1551 1554 1554 1556 1557
1494 1494 1489 1485 1474 1473 1471 1470 1461 1458 1455 1453 1453 1451 1450 1448 1448 1451 1457 1461 1468 1474 1480 1483 1487 1493 1491 1497 1502 1506 1511 1517 1519 1521 1525 1528 1532 1533 1536 1540 1542 1545 1546 1549 1549 1551 1552 1553 1554
1496 1481 1481 1479 1479 1480 1479 1478 1468 1456 1454 1455 1452 1450 1445 1443 1441 1445 1451 1456 1461 1469 1478 1486 1490 1490 1490 1494 1498 1501 1504 1509 1510 1516 1519 1522 1531 1533 1535 1538 1541 1542 1544 1546 1547 1548 1549 1551 1552
1490 1481 1481 1481 1483 1486 1484 1487 1475 1464 1462 1457 1451 1448 1441 1437 1437 1441 1446 1451 1457 1465 1473 1478 1482 1486 1489 1491 1495 1498 1503 1506 1509 1513 1519 1519 1528 1529 1533 1537 1539 1540 1542 1544 1544 1546 1547 1548 1549
1484 1482 1484 1485 1489 1494 1492 1491 1482 1474 1468 1458 1453 1447 1437 1434 1436 1441 1446 1452 1455 1462 1464 1471 1475 1480 1487 1488 1491 1489 1497 1505 1509 1514 1514 1518 1521 1527 1532 1535 1536 1538 1539 1541 1542 1543 1545 1546 1545
1488 1493 1502 1510 1505 1492 1494 1490 1486 1472 1467 1461 1454 1445 1439 1436 1438 1441 1445 1450 1455 1460 1463 1463 1471 1475 1482 1486 1489 1488 1497 1507 1505 1508 1508 1514 1519 1521 1530 1532 1534 1536 1536 1538 1539 1540 1542 1542 1542
1496 1500 1507 1520 1514 1505 1491 1490 1482 1469 1465 1460 1456 1450 1445 1442 1444 1445 1449 1455 1458 1462 1464 1468 1472 1476 1480 1480 1487 1498 1503 1498 1501 1506 1506 1513 1516 1522 1528 1530 1532 1534 1535 1536 1536 1536 1537 1538 1538
1496 1508 1508 1512 1512 1514 1492 1476 1477 1467 1465 1463 1460 1456 1452 1450 1450 1451 1453 1456 1460 1466 1471 1474 1475 1477 1476 1476 1491 1494 1495 1498 1502 1502 1507 1516 1518 1522 1525 1526 1529 1532 1532 1532 1533 1533 1531 1533 1534
1497 1505 1507 1512 1509 1506 1497 1490 1485 1471 1470 1467 1466 1464 1462 1459 1458 1459 1460 1459 1463 1467 1470 1473 1478 1479 1479 1481 1483 1488 1490 1496 1500 1506 1511 1515 1520 1521 1523 1523 1526 1528 1529 1529 1530 1529 1529 1530 1530
1505 1505 1505 1510 1510 1512 1516 1494 1483 1483 1477 1474 1472 1470 1467 1466 1465 1466 1468 1467 1467 1470 1472 1475 1478 1480 1483 1486 1489 1490 1494 1498 1504 1509 1513 1517 1521 1520 1521 1521 1523 1524 1525 1526 1526 1525 1525 1526 1525
1502 1499 1503 1514 1519 1508 1509 1502 1484 1484 1480 1479 1476 1475 1473 1471 1470 1473 1474 1472 1472 1476 1476 1479 1482 1485 1488 1490 1492 1495 1498 1502 1507 1511 1514 1517 1519 1518 1518 1519 1521 1522 1522 1522 1521 1521 1522 1521 1521